Regional Weather Roundup
Issued by NWS Sterling, VA

Home | Current Version | Previous Version | Graphics & Text | Print | Product List | Glossary On
Versions: 1 2 3 4 5 6 7 8 9 10 11 12 13 14 15 16 17 18 19 20 21 22 23 24 25 26 27 28 29 30 31 32 33 34 35 36 37 38 39 40 41 42 43 44 45 46 47 48 49 50
000
ASUS41 KLWX 011610
RWRLWX

REGIONAL WEATHER ROUNDUP
NATIONAL WEATHER SERVICE BALTIMORE MD/WASHINGTON DC
1200 PM EDT WED OCT 01 2014

Note: "FAIR" indicates few or no clouds below 12,000 feet
with no significant weather and/or obstructions to visibility.
 TC=TEMPERATURE CELSIUS

 * =Non NWS site. Station does not report precipitation (e.g. rain,
    snow, etc.), thunder, or fog.

DCZ001-MDZ009-015-VAZ040>042-051-053>054-011700-
WASHINGTON METRO

CITY           SKY/WX    TMP DP  RH WIND       PRES   REMARKS
WASHINGTON NAT CLOUDY    70  60  70 E3        30.05S
DULLES         PTSUNNY   68  61  77 VRB3      30.05S
ANDREWS AFB    CLOUDY    68  61  77 NE3       30.04F
QUANTICO       MOSUNNY   72  62  71 N9        30.04F
COLLEGE PARK*  CLOUDY    68  61  77 N3        30.05R
LEESBURG*      CLOUDY    68  64  88 CALM      30.06F
MANASSAS*      CLOUDY    70  64  83 CALM      30.04
GAITHERSBURG*  CLOUDY    64  61  88 CALM      30.09S

$$

MDZ006>007-011-014-011700-
BALTIMORE METRO

CITY           SKY/WX    TMP DP  RH WIND       PRES   REMARKS
BWI AIRPORT    PTSUNNY   69  60  73 NE7       30.04S
MD SCIENCE CTR   N/A     69  58  67 MISG      30.05S
MARTIN STATE   PTSUNNY   73  64  73 NE5       30.05S
ANNAPOLIS        N/A     68  60  75 MISG      30.04R
FORT MEADE*    CLOUDY    68  59  73 N3        30.07R

$$

MDZ012-015-019>023-011700-
MARYLAND EASTERN SHORE

CITY           SKY/WX    TMP DP  RH WIND       PRES   REMARKS
OCEAN CITY     CLOUDY    70  62  76 NE10      30.01S
SALISBURY      PTSUNNY   74  62  66 NE9       30.01S
BAY BRIDGE AP*   N/A     68  59  73 NE6       30.04R
CAMBRIDGE*     CLOUDY    72  63  73 N6        30.02S
EASTON*        PTSUNNY   72  63  73 E8        30.06S

$$

MDZ017>025-011700-
SOUTHERN MARYLAND

CITY           SKY/WX    TMP DP  RH WIND       PRES   REMARKS
PATUXENT RIVER MOSUNNY   70  60  70 VRB5      30.03S
ST INIGOES     CLOUDY    70  58  65 VRB3      30.03R
LEONARDTOWN*   PTSUNNY   70  59  68 E6        30.05S

$$

MDZ003>005-011700-
NORTH CENTRAL MARYLAND

CITY           SKY/WX    TMP DP  RH WIND       PRES   REMARKS
FREDERICK*     CLOUDY    68  64  88 VRB3      30.09R FOG
HAGERSTOWN APT CLOUDY    65  59  81 NE5       30.06S
WESTMINSTER*   CLOUDY    64  61  88 CALM      30.07S

$$

MDZ501>502-011700-
WESTERN MARYLAND

CITY           SKY/WX    TMP DP  RH WIND       PRES   REMARKS
OAKLAND*       CLOUDY    57 N/A N/A SE6       30.08S HAZE
CUMBERLAND*    CLOUDY    64  61  88 CALM      30.10S

$$

VAZ025>031-011700-
SHENANDOAH VALLEY

CITY           SKY/WX    TMP DP  RH WIND       PRES   REMARKS
WINCHESTER*    CLOUDY    64  61  88 NE3       30.06S
STAUNTON*      CLOUDY    69  58  68 SE3       30.07S

$$

WVZ021-048>050-054>055-011700-
EASTERN WEST VIRGINIA PANHANDLE

CITY           SKY/WX    TMP DP  RH WIND       PRES   REMARKS
MARTINSBURG    CLOUDY    66  59  78 CALM      30.06S
PETERSBURG*    CLOUDY   N/A N/A N/A CALM      30.07F

$$

VAZ036>039-050-011700-
CENTRAL FOOTHILLS

CITY           SKY/WX    TMP DP  RH WIND       PRES   REMARKS
CHARLOTTESVILL CLOUDY    68  62  81 CALM      30.05S HAZE
ORANGE*        CLOUDY    64  63  94 N3        30.06S FOG

$$

VAZ055>057-011700-
NORTH AND CENTRAL PIEDMONT

CITY           SKY/WX    TMP DP  RH WIND       PRES   REMARKS
FREDERICKSBRG* PTSUNNY   71  65  79 CALM      30.03F
STAFFORD*      CLOUDY    71  62  72 CALM      30.08S

$$

NCZ024-NYZ072-PAZ021-071-VAZ022-071-011700-
OTHER REGIONAL OBSERVATIONS

CITY           SKY/WX    TMP DP  RH WIND       PRES   REMARKS
NEW YORK CITY  CLOUDY    63  57  81 VRB6      30.08S
PHILADELPHIA   PTSUNNY   71  57  61 E10       30.05S
PITTSBURGH     CLOUDY    59  55  87 CALM      30.06R
ROANOKE        MOSUNNY   71  57  61 VRB5      30.07S
RICHMOND       MOSUNNY   77  61  57 N8        30.02S
RALEIGH        PTSUNNY   73  63  70 CALM      30.04S

$$

ANZ530>537-011700-
MARINE OBSERVATIONS

STATION/POSITION TIME  TEMP    WIND        PRES
                       AIR SEA DIR/SP/G
                 (UTC) (F)     (DEG/KT/KT) (MB)
THOMAS PT LIGHT  1600   66 72  360/  8/  9 1018.3R
BALT KEY BRIDGE  1600   67      80/  5/  6 1017.2F
COVE POINT       1600   66      10/  6/  8 1016.9S
LEWISETTA        1600   67 72   60/  3/  5 1016.6F
SOLOMONS ISLAND  1600      72                N/A
PINEY POINT      1600          130/  4/  5   N/A

$$




USA.gov is the U.S. government's official web portal to all federal, state and local government web resources and services.